Regional Weather Roundup
Issued by NWS

Home | Current Version | Previous Version | Graphics & Text | Print | Product List | Glossary On
Versions: 1 2 3 4 5 6 7 8 9 10 11 12 13 14 15 16 17 18 19 20 21 22 23 24 25 26 27 28 29 30 31 32 33 34 35 36 37 38 39 40 41 42 43 44 45 46 47 48 49 50
000
ASUS44 KMEG 291100
RWRTN
TENNESSEE HOURLY STATE WEATHER ROUNDUP
NATIONAL WEATHER SERVICE MEMPHIS TN
600 AM CDT WED JUL 29 2015

TNZ002-004-019-021-049-052-054-088>092-291200-
WEST TENNESSEE

CITY           SKY/WX    TMP DP  RH WIND       PRES   REMARKS
MEMPHIS INTL   MOCLDY    83  76  79 CALM      30.02R HX  91
NWS MEMPHIS      N/A     78 N/A N/A MISG        N/A
JACKSON        MOCLDY    77  73  87 CALM      30.02R
DYERSBURG        N/A    N/A N/A N/A MISG        N/A
PARIS          MOCLDY    72  70  94 CALM      30.02R
LEXINGTON      MOCLDY    72  72 100 SW3       30.02R
$$

TNZ008-025-027-028-033-062-065-066-291200-
NORTH MIDDLE TENNESSEE

CITY           SKY/WX    TMP DP  RH WIND       PRES   REMARKS
NASHVILLE      MOCLDY    73  73 100 CALM      30.03R FOG
CLARKSVILLE    PTCLDY    72  71  97 CALM      30.02R
CROSSVILLE     PTCLDY    71  67  87 CALM      30.08R FOG
$$

TNZ061-075-076-078-094-096-097-291200-
SOUTH MIDDLE TENNESSEE

CITY           SKY/WX    TMP DP  RH WIND       PRES   REMARKS
FAYETTEVILLE   MOCLDY    72  72 100 N3        30.03R
TULLAHOMA      CLOUDY    73  72  94 CALM      30.05R VSB 1
WINCHESTER     CLOUDY    72  72 100 CALM      30.04R
MCMINNVILLE    CLOUDY    73  73 100 CALM      30.04R VSB 1/4
SHELBYVILLE    CLEAR     73  73 100 NW5       30.05R
$$

TNZ017-018-042-046-047-291200-
NORTHEAST TENNESSEE

CITY           SKY/WX    TMP DP  RH WIND       PRES   REMARKS
TRI CITIES     PTCLDY    68  67  96 CALM      30.05R
ELIZABETHTON   SUNNY     66  66 100 CALM      30.05R
$$

TNZ012-013-036-069-073-074-291200-
CENTRAL EAST TENNESSEE

CITY           SKY/WX    TMP DP  RH WIND       PRES   REMARKS
KNOXVILLE      MOCLDY    74  72  93 NW6       30.02R
OAK RIDGE      CLOUDY    74  72  93 CALM      30.03R FOG
GATLINBURG     SUNNY     72  70  94 CALM      30.01R
$$

TNZ083-085-099-291200-
SOUTHEAST TENNESSEE

CITY           SKY/WX    TMP DP  RH WIND       PRES   REMARKS
CHATTANOOGA    PTCLDY    76  73  91 N3        30.01R
$$

SKY/WX REPORTED AS FAIR MEANS FEW OR NO CLOUDS BELOW
12 THOUSAND FEET.



USA.gov is the U.S. government's official web portal to all federal, state and local government web resources and services.